PST,Max TemperatureF,Mean TemperatureF,Min TemperatureF,Max Dew PointF,MeanDew PointF,Min DewpointF,Max Humidity, Mean Humidity, Min Humidity, Max Sea Level PressureIn, Mean Sea Level PressureIn, Min Sea Level PressureIn, Max VisibilityMiles, Mean VisibilityMiles, Min VisibilityMiles, Max Wind SpeedMPH, Mean Wind SpeedMPH, Max Gust SpeedMPH,PrecipitationIn, CloudCover, Events, WindDirDegrees
2012-11-1,55,47,39,43,38,30,76,69,54,30.07,29.93,29.81,10,10,5,12,4,16,0.00,6,,12
2012-11-2,60,46,33,43,35,27,87,63,39,30.14,30.08,30.03,10,9,0,20,5,26,0.00,2,,181
2012-11-3,62,56,50,37,36,34,58,49,39,30.23,30.13,30.05,10,10,9,18,13,23,0.00,7,,182
2012-11-4,64,52,41,41,37,32,76,54,37,30.37,30.32,30.23,10,10,8,15,4,,0.00,5,,163
2012-11-5,69,54,39,45,39,34,81,60,38,30.36,30.30,30.23,10,10,5,12,3,,0.00,1,,75
2012-11-6,68,54,41,41,37,32,76,49,35,30.23,30.09,29.96,10,10,10,30,12,38,0.00,0,,192
2012-11-7,55,42,28,39,29,19,74,57,43,30.11,30.01,29.90,10,10,7,26,9,34,0.00,5,,316
2012-11-8,39,34,28,28,25,18,80,71,64,29.89,29.72,29.65,10,10,4,17,4,18,0.00,5,,315
2012-11-9,39,32,26,30,24,19,80,72,56,29.80,29.76,29.72,10,9,1,10,3,,0.00,6,,347
2012-11-10,39,32,26,25,22,18,80,66,48,30.14,29.96,29.80,10,10,3,16,5,17,0.00,7,,307
2012-11-11,37,32,26,19,18,16,74,54,44,30.30,30.26,30.15,10,10,10,18,7,26,0.00,8,,175
2012-11-12,35,34,33,27,23,18,75,62,48,30.32,30.29,30.27,10,9,2,24,17,30,0.00,8,,177
2012-11-13,42,38,35,28,28,27,70,64,57,30.31,30.23,30.17,10,10,10,23,18,31,0.00,7,,179
2012-11-14,48,40,33,36,30,27,81,68,53,30.29,30.24,30.18,10,10,6,18,9,23,0.00,7,,188
2012-11-15,46,40,35,32,29,27,81,59,53,30.29,30.13,29.98,10,10,0,34,16,48,0.00,6,,163
2012-11-16,51,48,44,34,30,28,62,51,44,29.98,29.94,29.91,10,10,10,28,17,33,0.00,4,,175
2012-11-17,55,46,37,39,33,28,75,58,44,29.91,29.74,29.61,10,10,3,37,14,44,0.00,7,,168
2012-11-18,46,37,28,30,27,21,80,62,46,29.97,29.91,29.82,10,10,10,22,9,29,0.00,4,,168
2012-11-19,55,50,44,36,31,27,66,49,41,29.94,29.87,29.78,10,10,10,37,23,48,0.01,7,,163
2012-11-20,57,54,48,41,37,32,67,54,41,29.82,29.75,29.68,10,10,7,32,20,46,0.01,5,,178
2012-11-21,50,40,30,36,27,19,80,56,32,30.25,29.93,29.63,10,10,5,25,13,34,0.00,3,,281
2012-11-22,44,34,23,27,21,14,80,57,39,30.43,30.37,30.26,10,10,10,25,7,32,0.00,0,,170
2012-11-23,46,42,39,25,23,21,49,43,39,30.36,30.26,30.15,10,10,10,32,23,44,0.00,2,,182
2012-11-24,48,44,39,36,31,25,76,61,43,30.18,30.13,30.09,10,10,7,15,9,18,0.04,8,,220
2012-11-25,44,34,24,30,25,18,75,65,49,30.24,30.18,30.10,10,10,9,10,6,,0.12,4,,326
2012-11-26,44,32,19,25,20,12,80,61,39,30.25,30.19,30.14,10,10,0,24,8,33,0.00,0,,171
2012-11-27,44,40,37,27,25,23,60,52,46,30.18,30.12,30.06,10,10,10,24,17,31,0.00,0,,170
2012-11-28,46,44,42,32,27,25,57,49,46,30.06,29.91,29.80,10,10,10,26,17,37,0.00,4,,171
2012-11-29,51,46,42,36,32,30,66,56,47,29.89,29.79,29.62,10,10,10,25,18,40,0.00,4,,182
2012-11-30,59,52,46,41,36,34,71,61,45,29.67,29.62,29.56,10,10,9,22,13,33,0.00,6,,185